This demonstration page uses our WeatherBlox Daily Observations layout. Learn more.

38.88101, -77.10428

Hourly Observations for October 1, 2016

Temp ( °F °C ) Dew Point ( °F °C ) Humidity (%) Winds ( mph kmh ) Pressure ( in mb ) Visibility ( mi km ) Precip ( " mm )
12:52 am 00:52 Cloudy with Light Drizzle 64 17.8 64 17.8 100 100 ENE 10 17 30.12 1020 6 9.656064 0.001 0.001
1:52 am 01:52 Cloudy with Light Rain 64 17.8 64 17.8 100 100 ENE 10 17 30.12 1020 5 8.04672 0.01 0.254
2:52 am 02:52 Cloudy with Light Drizzle 64 17.8 64 17.8 100 100 NE 10 17 30.12 1020 7 11.265408 0.1 2.54
3:52 am 03:52 Cloudy with Light Drizzle 64 17.8 64 17.8 100 100 NE 9 15 30.12 1020 5 8.04672 0.01 0.254
4:52 am 04:52 Cloudy with Light Drizzle 64 17.8 64 17.8 100 100 NE 9 15 30.09 1019 7 11.265408 0.02 0.508
5:52 am 05:52 Cloudy with Light Drizzle 64 17.8 64 17.8 100 100 NE 12 19 30.12 1020 7 11.265408 0.001 0.001
6:52 am 06:52 Cloudy with Light Drizzle 64 17.8 64 17.8 100 100 ENE 13 20 30.12 1020 7 11.265408 0.001 0.001
7:52 am 07:52 Cloudy with Light Drizzle 64 17.8 64 17.8 100 100 ENE 14 22 30.12 1020 6 9.656064 0.001 0.001
8:52 am 08:52 Cloudy with Light Rain 64 17.8 64 17.8 100 100 NE 8 13 30.12 1020 10 16.09344 0.02 0.508
9:17 am 09:17 Cloudy with Light Rain 64 17.8 63 17.2 96 96 NNE 8 13 30.15 1021 4 6.437376 0.001 0.001
9:21 am 09:21 Cloudy with Heavy Rain 64 17.8 63 17.2 96 96 NNE 13 20 30.12 1020 2.5 4.02336 0.05 1.27
9:28 am 09:28 Cloudy with Light Rain 64 18 64 18 100 100 NNE 7 11 30.15 1021 4 6.437376 0 0
9:33 am 09:33 Cloudy with Light Rain 64 17.8 63 17.2 96 96 NNE 9 15 30.12 1020 9 14.484096 0.06 1.524
9:35 am 09:35 Cloudy with Light Rain 64 17.8 63 17.2 96 96 NNE 10 17 30.12 1020 10 16.09344 0.06 1.524
9:52 am 09:52 Cloudy with Light Drizzle 64 17.8 64 17.8 100 100 NE 8 13 30.12 1020 6 9.656064 0.06 1.524
9:57 am 09:57 Cloudy with Light Drizzle 64 17.8 64 17.8 100 100 NE 8 13 30.12 1020 4 6.437376 0.001 0.001
10:52 am 10:52 Cloudy 65 18.3 64 17.8 97 97 NNE 10 17 30.12 1020 10 16.09344 0.001 0.001
11:16 am 11:16 Cloudy 66 19 64 18 94 94 NE 10 17 30.12 1020 10 16.09344 0 0
11:52 am 11:52 Cloudy 66 18.9 65 18.3 96 96 NE 8 13 30.12 1020 10 16.09344 0.001 0.001
12:33 pm 12:33 Cloudy 66 19 64 18 94 94 NNE 9 15 30.12 1020 9 14.484096 0 0
12:39 pm 12:39 Cloudy with Light Drizzle 66 18.9 65 18.3 96 96 NNE 8 13 30.12 1020 5 8.04672 0.001 0.001
12:52 pm 12:52 Cloudy with Light Drizzle 66 18.9 65 18.3 96 96 N 7 11 30.12 1020 6 9.656064 0.001 0.001
1:13 pm 13:13 Cloudy with Light Thunderstorms 66 18.9 65 18.3 96 96 NNE 8 13 30.12 1020 6 9.656064 0.001 0.001
1:29 pm 13:29 Cloudy with Nearby Thunderstorms 66 18.9 66 18.9 100 100 NE 8 13 30.12 1020 5 8.04672 0.01 0.254
1:40 pm 13:40 Cloudy 66 19 66 19 100 100 NE 9 15 30.09 1019 9 14.484096 0 0
1:43 pm 13:43 Cloudy with Light Drizzle 67 19.4 66 18.9 97 97 NE 10 17 30.09 1019 8 12.874752 0.01 0.254
1:52 pm 13:52 Cloudy with Light Drizzle 67 19.4 66 18.9 97 97 NNE 10 17 30.09 1019 6 9.656064 0.01 0.254
1:58 pm 13:58 Cloudy with Light Drizzle 66 19 66 19 100 100 NNE 10 17 30.09 1019 7 11.265408 0 0
2:52 pm 14:52 Cloudy 66 18.9 65 18.3 96 96 NNE 9 15 30.09 1019 10 16.09344 0.001 0.001
3:43 pm 15:43 Cloudy with Mist and Fog 66 18.9 65 18.3 96 96 NNE 8 13 30.09 1019 4 6.437376 0.001 0.001
3:52 pm 15:52 Cloudy with Mist and Fog 66 18.9 65 18.3 96 96 NNE 9 15 30.06 1018 4 6.437376 0.001 0.001
4:28 pm 16:28 Cloudy 66 19 64 18 94 94 NNE 10 17 30.06 1018 10 16.09344 0 0
4:38 pm 16:38 Cloudy 66 19 64 18 94 94 NNE 10 17 30.06 1018 10 16.09344 0 0
4:52 pm 16:52 Cloudy 66 18.9 65 18.3 96 96 NNE 9 15 30.06 1018 10 16.09344 0 0
5:52 pm 17:52 Cloudy 66 18.9 65 18.3 96 96 NE 8 13 30.06 1018 10 16.09344 0 0
6:52 pm 18:52 Cloudy 66 18.9 64 17.8 93 93 N 6 9 30.09 1019 10 16.09344 0 0
7:52 pm 19:52 Cloudy with Light Drizzle 66 19 64 18 94 94 NE 14 22 30.12 1020 5 8.04672 0 0
8:46 pm 20:46 Cloudy 64 18 64 18 100 100 NNE 5 7 30.09 1019 10 16.09344 0 0
8:52 pm 20:52 Cloudy 65 18.3 64 17.8 97 97 NNE 7 11 30.09 1019 10 16.09344 0 0
9:52 pm 21:52 Cloudy with Mist and Fog 65 18.3 65 18.3 100 100 NNE 5 7 30.09 1019 4 6.437376 0 0
10:52 pm 22:52 Cloudy with Mist and Fog 65 18.3 65 18.3 100 100 N 6 9 30.09 1019 6 9.656064 0 0
11:52 pm 23:52 Cloudy with Light Drizzle 65 18.3 65 18.3 100 100 N 6 9 30.09 1019 5 8.04672 0.001 0.001

Powered by AerisWeather